Location: Newark
(32.9533°N, 113.4900°W)
Time: 16:12:13
(UTC+00:00)

Hubble Space Telescope - Visible Passes

Search period start: 21 March 2019 00:00
Search period end: 31 March 2019 00:00
Orbit: 537 x 540 km, 28.5° (Epoch: 21 March)

Date Brightness Start Highest point End Pass type
(mag) Time Alt. Az. Time Alt. Az. Time Alt. Az.
22 Mar 3.2 03:07:14 10° S 03:07:21 10° S 03:07:21 10° S visible
23 Mar 2.8 02:55:38 10° S 02:57:50 14° SSE 02:57:54 14° SSE visible
24 Mar 2.5 02:44:31 10° SSW 02:47:15 17° SSE 02:48:24 16° SE visible
25 Mar 2.4 02:33:34 10° SSW 02:36:41 21° SSE 02:38:49 14° ESE visible
25 Mar 3.5 04:13:35 10° WSW 04:14:11 13° WSW 04:14:11 13° WSW visible
26 Mar 2.2 02:22:44 10° SW 02:26:07 24° SSE 02:29:10 12° ESE visible
26 Mar 2.9 04:03:02 10° WSW 04:04:31 20° WSW 04:04:31 20° WSW visible
27 Mar 2.0 02:12:00 10° SW 02:15:34 28° SSE 02:19:09 10° ESE visible
27 Mar 2.3 03:52:29 10° WSW 03:54:48 29° SW 03:54:48 29° SW visible
28 Mar 1.7 03:41:58 10° WSW 03:45:02 38° SW 03:45:02 38° SW visible
29 Mar 1.4 03:31:28 10° WSW 03:35:13 44° SSW 03:35:13 44° SSW visible
30 Mar 1.3 03:20:59 10° WSW 03:24:54 42° S 03:25:22 40° SSE visible
